sat.trackr.live / text

‹ back to catalog

ASTRA 2G

NORAD 40364 · 2014-089A

PAYLOAD ACTIVE UNKNOWN

§ Identity

Operator
Country
SES
Launch date
2014-12-27
Launch site
TYMSC
Launch vehicle
Mass (kg)
RCS (m²)
0.00

Purposes: comms

External: N2YO · Heavens-Above · Gunter

§ Orbital elements

Epoch: 2026-09-20T03:22:12.332928Z

Period
1,436.05 min
Inclination
0.0589°
Eccentricity
0.0002771
Mean motion
1.00275096 rev/d
Perigee alt
35,774.0 km
Apogee alt
35,797.4 km
Semi-major
42,163.8 km
B*
0.0000e+0
RAAN
346.3900°
Arg perigee
114.0391°
Mean anomaly
337.3631°
Rev number
4,291

§ Raw data

ASTRA 2G1 40364U 14089A   26263.14042052  .00000146  00000+0  00000+0 0  99952 40364   0.0589 346.3900 0002771 114.0391 337.3631  1.00275096 42914

JSON: /api/v1/satellites/40364 · /tle

For live sub-satellite position, see the globe view (requires WebGL).

§ Visibility from observer

Set your observer location to see the next 7 days of passes ≥ 10°. The values pass through the URL so the page stays shareable.

No JS? Fill the form by hand. The geolocation button needs JavaScript.